www.pogodaiklimat.ru

Погода и климат >> Архив погоды >> Россия >> Приморский край >> Барабаш


ПОГОДА в Барабаше

  • Прогноз погоды в Барабаше
  • Монитор погоды в Барабаше

АРХИВ ПОГОДЫ в Барабаше

Время (UTC), дата Ветер
(напр.,м/с)
 
Видим.   Явления Облачность Т
(С)
Тd
(С)
f
(%)
Тe
(С)
Тes
(С)
Комфортность P
(гПа)
Po
(гПа)
Тmin
(С)
Tmax
(С)
R
(мм)
R24
(мм)
S
(см)
09 17.04 В 2 50 км 8/0
[Ac trans Ci]
+16.8 -3.3 25 +17 +17 1004.2 1000.0 +20.8
12 17.04 ЮВ 3 н/о н/о +7.3 +2.8 73 +5 1004.4 1000.0
15 17.04 штиль 0 10 км 10 баллов +4.3 +3.0 91 +3 +3 1003.1 998.7
18 17.04 С 1 н/о н/о +4.6 +4.2 97 +3 1001.7 997.3
21 17.04 штиль 0 20 км {дождь} 3/3 600 м
[Sc]
+0.9 +0.6 98 -1 -0 1001.8 997.3 +0.7 0.3
00 18.04 ЮВ 1 н/о н/о +9.8 +4.2 68 +10 +10 1001.6 997.3
03 18.04 СЗ 4-11
{14}
20 км 4/4 600 м
[Cu hum]
+17.7 -5.5 20 +18 +24 1002.9 998.7
06 18.04 СЗ 6 н/о н/о +12.2 -6.7 26 +10 1007.0 1002.7
09 18.04 С 4
{16}
50 км 6/6 600 м
[Sc]
+7.7 -9.2 29 +5 +5 1011.1 1006.7 +18.7
12 18.04 штиль 0
{11}
н/о н/о -0.1 -8.5 53 -1 -1 1013.7 1009.2
15 18.04 СЗ 3 10 км ясно +4.9 -13.5 25 +3 +3 1016.5 1012.0
21 18.04 С 2 50 км ясно -4.7 -9.6 69 -9 -8 1017.3 1012.6 -5.3
00 19.04 СЗ 2 н/о н/о +10.1 -11.6 20 +9 +9 1016.2 1011.8
03 19.04 СЗ 5 50 км ясно +14.6 -14.5 12 +14 +22 1015.0 1010.7
06 19.04 СЗ 5 н/о н/о +16.8 -17.7 8 +16 1013.6 1009.3
09 19.04 СЗ 4-11
{12}
50 км ясно +15.3 -17.4 9 +15 +15 1012.3 1008.0 +17.1
12 19.04 штиль 0
{11}
н/о н/о +3.6 -12.7 29 +4 +4 1014.2 1009.7
15 19.04 СЗ 2 10 км ясно -1.9 -9.7 55 -5 -5 1016.6 1012.0
18 19.04 СЗ 1 н/о н/о -3.8 -10.2 61 -6 1016.6 1012.0
21 19.04 СЗ 1 50 км 3/0
[Ac trans Ci fib]
-4.6 -10.8 62 -7 -6 1016.0 1011.4 -5.9
00 20.04 В 1 н/о н/о +9.4 -12.0 21 +10 +10 1014.4 1010.0
03 20.04 ЮЗ 2 50 км 10 баллов +12.9 -13.1 15 +13 +13 1013.6 1009.3
06 20.04 СВ 2 н/о н/о +12.8 -11.6 17 +13 1011.0 1006.7
09 20.04 ЮВ 1 50 км 9/0
[Ac trans]
+8.4 +0.4 57 +8 +8 1008.4 1004.0 +14.3
12 20.04 Ю 1 н/о н/о +5.1 +3.3 88 +4 1011.1 1006.7
15 20.04 Ю 2 10 км 10 баллов +4.7 +3.8 94 +2 +2 1011.1 1006.7
18 20.04 штиль 0 н/о н/о +0.3 -0.4 95 -1 1012.5 1008.0
21 20.04 С 1 50 км ясно -2.2 -2.4 99 -5 -4 1012.5 1007.9 -2.2
00 21.04 СЗ 2 н/о н/о +14.9 -11.5 15 +15 +15 1012.6 1008.2 -2.2
03 21.04 ЮЗ 1 20 км 10 баллов +16.2 -15.5 10 +17 +17 1012.3 1008.0
06 21.04 В 2 н/о н/о +18.1 -14.0 10 +19 1011.0 1006.7
09 21.04 Ю 2 20 км ясно +16.1 -12.3 13 +16 +17 1011.0 1006.7 +18.5
12 21.04 штиль 0 н/о н/о +2.8 -5.8 53 +2 1013.8 1009.3
15 21.04 С 1 10 км ясно -0.8 -6.5 65 -2 -2 1016.6 1012.0
18 21.04 СЗ 2 н/о н/о -1.9 -8.0 63 -5 1017.9 1013.3
21 21.04 СЗ 2 20 км ясно -3.7 -8.1 71 -8 -7 1018.5 1013.8 -3.8
00 22.04 С 1 н/о н/о +12.0 -11.2 19 +13 +13 1018.7 1014.3
03 22.04 В 2 50 км ясно +17.1 -12.5 12 +18 +34 опасность
простуды
1019.0 1014.7
06 22.04 ЮВ 4 н/о н/о +17.9 -11.9 12 +18 1017.6 1013.3
09 22.04 Ю 3 50 км ясно +15.8 -14.6 11 +16 +16 1015.0 1010.7 +18.4
12 22.04 штиль 0 н/о н/о +11.1 -13.0 17 +11 1016.4 1012.0
15 22.04 Ю 1 10 км 10 баллов +10.4 -7.8 27 +11 +11 1015.1 1010.7
21 22.04 В 1 10 км слаб. морось 10/10 300 м
[St]
+8.0 +7.7 98 +7 +7 1011.7 1007.3 +6.3 0.4
00 23.04 В 1 н/о н/о +8.4 +8.1 98 +7 +7 1012.3 1007.9
03 23.04 В 2 50 км 7 баллов +14.2 +7.0 62 +14 +19 1012.3 1008.0
06 23.04 ЮВ 3 н/о н/о +11.0 +7.1 77 +9 1011.0 1006.7
09 23.04 Ю 1 20 км 10/10 600 м
[Sc]
+9.6 +7.5 87 +9 +9 1011.1 1006.7 +14.9 0.0
12 23.04 штиль 0 н/о н/о +8.4 +8.1 98 +7 1012.4 1008.0
15 23.04 ЮВ 1 10 км 10 баллов +8.0 +7.7 98 +7 +7 1012.4 1008.0
18 23.04 штиль 0 н/о н/о +7.8 +7.5 98 +7 1011.1 1006.7
21 23.04 СЗ 1 20 км 10/10 600 м
[Sc]
+7.6 +7.3 98 +7 +7 1010.3 1005.9 +7.5
00 24.04 СЗ 2 н/о н/о +11.3 +7.1 75 +10 +10 1011.2 1006.8
03 24.04 СЗ 4 50 км 10 баллов +16.1 -3.4 26 +16 +16 1011.0 1006.7
06 24.04 С 3 н/о н/о +12.0 -3.8 33 +11 1012.3 1008.0

 

Местоположение метеостанции Барабаш (Приморский край, Россия): широта 43.20 долгота 131.40 высота над уровнем моря 36 м.

В архиве по умолчанию представлена погода в Барабаше за последнюю неделю. Архивные данные за месяц целиком и за предыдущие месяцы, начиная с января 2011 года, Вы можете получить, выбрав интересующий диапазон дат из раскрывающегося списка и нажав кнопку "Ввод!".


*Определитесь, кто Вы:
робот инопланетянин человек

Внимание! Время в таблицах - всемирное. Для получения местного времени необходимо прибавить поправку, которая равна 10 ч.

Смотрите также архив погоды в соседних городах и на ближайших метеорологических станциях:

Погода в Владивостоке (Приморский край, Россия) (42 км)
Погода на Мысе Назимова (Приморский край, Россия) (44 км)
Погода в Гамове (Приморский край, Россия) (74 км)
Погода в Посьете (Приморский край, Россия) (78 км)
Погода в Тимирязевском (Приморский край, Россия) (86 км)
Погода в Многоудобном (Приморский край, Россия) (92 км)
Погода в Полтавке (Приморский край, Россия) (93 км)
Погода в Находке (Приморский край, Россия) (122 км)
Погода в Сонбонге (КНДР) (127 км)
Погода в Партизанске (Приморский край, Россия) (130 км)

Пояснения к столбцам:

Ветер - указаны скорость ветра в м/с - средняя за 10 мин, порывы в срок и между сроками (в фигурных скобках) и направление, откуда дует ветер: С - северный, СВ - северо-восточный, В - восточный, ЮВ - юго-восточный, Ю - южный, ЮЗ - юго-западный, З - западный, СЗ - северо-западный.
Видимость - горизонтальная дальность видимости в метрах или километрах. При видимости от 1 до 10 км при отсутствии осадков обычно наблюдается дымка, при ухудшении видимости до 1 км и менее - туман. В сухую погоду видимость может ухудшаться дымом, пылью или мглою.
Явления - указаны атмосферные явления, наблюдавшиеся в срок или в последний час перед сроком; фигурными скобками обозначены явления, наблюдавшиеся между сроками (за 1-3 часа до срока); квадратными скобками обозначены град или гололедные отложения с указанием их диаметра в мм.
Облачность - указаны через наклонную черту общая и нижняя облачность в баллах и высота нижней границы облаков в метрах; квадратными скобками обозначены формы облаков: Ci - перистые, Cs - перисто-слоистые, Cc - перисто-кучевые, Ac - высококучевые, As - высокослоистые, Sc - слоисто-кучевые, Ns - слоисто-дождевые, Cu - кучевые, Cb - кучево-дождевые. Подробнее классификацию облаков см. в Атласе облаков (PDF).
T - Температура воздуха - температура, измеренная на высоте 2 м над землей.
Td - Температура точки росы - температура, при понижении до которой содержащийся в воздухе водяной пар достигнет насыщения.
f - Относительная влажность воздуха - влажноcть воздуха, измеренная на высоте 2 м над землей.
Te - Эффективная температура - температура, которую ощущает одетый по сезону человек в тени. Характеристика душности погоды. При расчете учитывается влияние влажности воздуха и скорости ветра на теплоощущения человека.
Tes - Эффективная температура на солнце - температура, которую ощущает человек, с поправкой на солнечный нагрев. Характеристика знойности погоды. Зависит от высоты солнца над горизонтом, облачности и скорости ветра. Ночью, в пасмурную погоду, а также при ветре 12 м/с и более поправка равна нулю.
P - Атмосферное давление - приведенное к уровню моря атмосферное давление.
Po - Атмосферное давление - измеренное на уровне метеостанции атмосферное давление.
Tmin - Минимальная температура - минимум температуры воздуха на высоте 2 м над землей.
Tmax - Максимальная температура - максимум температуры воздуха на высоте 2 м над землей.
R - Количество осадков - Количество выпавших осадков за период времени, мм. При наведении курсора мыши на число - период времени, за который выпало указанное количество осадков.
R24 - Количество осадков - Количество выпавших осадков за 24 часа, мм.
S - Снежный покров - Высота снежного покрова, см. При наведении курсора мыши на число - состояние снежного покрова и степень покрытия местности в баллах.